Time,TemperatureF,DewpointF,PressureIn,WindDirection,WindDirectionDegrees,WindSpeedMPH,WindSpeedGustMPH,Humidity,HourlyPrecipIn,Conditions,Clouds,dailyrainin,SoftwareType,DateUTC
2013-01-21 00:01:00,43.3,35.0,30.09,NNW,333,0.0,0.0,72,0.00,,,0.00,weatherlink.com 1.10,2013-01-21 05:01:00,
2013-01-21 00:18:00,42.7,35.0,30.09,NNW,332,0.0,0.0,73,0.00,,,0.00,weatherlink.com 1.10,2013-01-21 05:18:00,
2013-01-21 00:35:00,42.0,35.0,30.09,NNW,332,0.0,1.0,76,0.00,,,0.00,weatherlink.com 1.10,2013-01-21 05:35:00,
2013-01-21 00:52:00,41.5,36.0,30.08,NNW,332,0.0,0.0,80,0.00,,,0.00,weatherlink.com 1.10,2013-01-21 05:52:00,
2013-01-21 01:00:00,39.7,36.7,30.07,WNW,288,0.0,1.0,89,0.00,,---,0.00,VWS V14.01,2013-01-21 06:00:00,
2013-01-21 01:08:00,41.1,36.0,30.07,NNW,332,0.0,0.0,81,0.00,,,0.00,weatherlink.com 1.10,2013-01-21 06:08:00,
2013-01-21 01:24:00,40.6,36.0,30.07,NNW,332,0.0,0.0,83,0.00,,,0.00,weatherlink.com 1.10,2013-01-21 06:24:00,
2013-01-21 01:41:00,40.0,36.0,30.07,NNW,332,0.0,0.0,85,0.00,,,0.00,weatherlink.com 1.10,2013-01-21 06:41:00,
2013-01-21 01:57:00,39.7,37.0,30.07,WNW,288,0.0,1.0,89,0.00,,,0.00,weatherlink.com 1.10,2013-01-21 06:57:00,
2013-01-21 02:14:00,39.6,37.0,30.07,WNW,288,0.0,1.0,90,0.00,,,0.00,weatherlink.com 1.10,2013-01-21 07:14:00,
2013-01-21 02:30:00,39.2,36.0,30.07,NW,307,0.0,3.0,89,0.00,,,0.00,weatherlink.com 1.10,2013-01-21 07:30:00,
2013-01-21 02:47:00,38.9,37.0,30.07,NW,310,1.0,2.0,91,0.00,,,0.00,weatherlink.com 1.10,2013-01-21 07:47:00,
2013-01-21 03:00:00,38.1,34.9,30.05,NW,306,0.0,3.0,88,0.00,,---,0.00,VWS V14.01,2013-01-21 08:00:00,
2013-01-21 03:03:00,38.9,36.0,30.06,NW,325,1.0,3.0,90,0.00,,,0.00,weatherlink.com 1.10,2013-01-21 08:03:00,
2013-01-21 03:19:00,39.0,36.0,30.06,WNW,288,1.0,3.0,89,0.00,,,0.00,weatherlink.com 1.10,2013-01-21 08:19:00,
2013-01-21 03:35:00,38.9,36.0,30.06,NW,306,0.0,2.0,88,0.00,,,0.00,weatherlink.com 1.10,2013-01-21 08:35:00,
2013-01-21 03:52:00,38.4,35.0,30.05,NW,306,0.0,1.0,88,0.00,,,0.00,weatherlink.com 1.10,2013-01-21 08:52:00,
2013-01-21 04:09:00,37.8,35.0,30.05,NW,306,0.0,1.0,88,0.00,,,0.00,weatherlink.com 1.10,2013-01-21 09:09:00,
2013-01-21 04:25:00,37.4,35.0,30.05,NW,315,1.0,4.0,90,0.00,,,0.00,weatherlink.com 1.10,2013-01-21 09:25:00,
2013-01-21 04:42:00,37.7,35.0,30.05,WNW,296,0.0,2.0,90,0.00,,,0.00,weatherlink.com 1.10,2013-01-21 09:42:00,
2013-01-21 04:59:00,37.8,35.0,30.04,NW,306,0.0,4.0,89,0.00,,,0.00,weatherlink.com 1.10,2013-01-21 09:59:00,
2013-01-21 05:00:00,37.1,34.4,30.05,WNW,296,4.0,4.0,90,0.00,,---,0.00,VWS V14.01,2013-01-21 10:00:00,
2013-01-21 05:15:00,37.5,34.0,30.04,NW,304,0.0,2.0,88,0.00,,,0.00,weatherlink.com 1.10,2013-01-21 10:15:00,
2013-01-21 05:31:00,37.2,34.0,30.04,NW,304,1.0,2.0,89,0.00,,,0.00,weatherlink.com 1.10,2013-01-21 10:31:00,
2013-01-21 05:48:00,37.1,34.0,30.04,WNW,293,0.0,2.0,89,0.00,,,0.00,weatherlink.com 1.10,2013-01-21 10:48:00,
2013-01-21 06:04:00,37.2,35.0,30.04,WNW,289,0.0,4.0,90,0.00,,,0.00,weatherlink.com 1.10,2013-01-21 11:04:00,
2013-01-21 06:20:00,37.0,34.0,30.05,WNW,289,1.0,2.0,89,0.00,,,0.00,weatherlink.com 1.10,2013-01-21 11:20:00,
2013-01-21 06:37:00,37.2,34.0,30.05,West,269,1.0,3.0,88,0.00,,,0.00,weatherlink.com 1.10,2013-01-21 11:37:00,
2013-01-21 06:53:00,37.5,34.0,30.05,WNW,299,0.0,2.0,87,0.00,,,0.00,weatherlink.com 1.10,2013-01-21 11:53:00,
2013-01-21 07:00:00,36.7,32.9,30.06,WNW,298,1.0,4.0,86,0.00,,---,0.00,VWS V14.01,2013-01-21 12:00:00,
2013-01-21 07:09:00,37.2,33.0,30.05,WNW,299,0.0,2.0,85,0.00,,,0.00,weatherlink.com 1.10,2013-01-21 12:09:00,
2013-01-21 07:26:00,37.2,33.0,30.05,WNW,298,0.0,2.0,85,0.00,,,0.00,weatherlink.com 1.10,2013-01-21 12:26:00,
2013-01-21 07:42:00,37.0,33.0,30.06,WNW,298,0.0,1.0,86,0.00,,,0.00,weatherlink.com 1.10,2013-01-21 12:42:00,
2013-01-21 07:59:00,36.7,33.0,30.06,WNW,298,2.0,3.0,87,0.00,,,0.00,weatherlink.com 1.10,2013-01-21 12:59:00,
2013-01-21 08:15:00,36.8,33.0,30.06,WNW,289,0.0,3.0,85,0.00,,,0.00,weatherlink.com 1.10,2013-01-21 13:15:00,
2013-01-21 08:32:00,37.7,34.0,30.07,WNW,298,2.0,3.0,85,0.00,,,0.00,weatherlink.com 1.10,2013-01-21 13:32:00,
2013-01-21 08:49:00,39.1,34.0,30.07,WNW,292,2.0,4.0,83,0.00,,,0.00,weatherlink.com 1.10,2013-01-21 13:49:00,
2013-01-21 09:00:00,46.1,32.2,30.08,WNW,291,3.0,9.0,58,0.00,,---,0.00,VWS V14.01,2013-01-21 14:00:00,
2013-01-21 09:05:00,40.7,34.0,30.08,WNW,300,1.0,4.0,77,0.00,,,0.00,weatherlink.com 1.10,2013-01-21 14:05:00,
2013-01-21 09:21:00,42.6,33.0,30.08,NW,304,4.0,6.0,69,0.00,,,0.00,weatherlink.com 1.10,2013-01-21 14:21:00,
2013-01-21 09:38:00,44.7,32.0,30.07,WNW,288,3.0,6.0,62,0.00,,,0.00,weatherlink.com 1.10,2013-01-21 14:38:00,
2013-01-21 09:54:00,45.7,31.0,30.08,West,279,5.0,9.0,58,0.00,,,0.00,weatherlink.com 1.10,2013-01-21 14:54:00,
2013-01-21 10:11:00,47.0,32.0,30.08,NW,313,5.0,8.0,57,0.00,,,0.00,weatherlink.com 1.10,2013-01-21 15:11:00,
2013-01-21 10:27:00,48.5,33.0,30.08,WNW,300,5.0,9.0,56,0.00,,,0.00,weatherlink.com 1.10,2013-01-21 15:27:00,
2013-01-21 10:43:00,49.9,34.0,30.08,WSW,257,3.0,9.0,55,0.00,,,0.00,weatherlink.com 1.10,2013-01-21 15:43:00,
2013-01-21 11:00:00,52.2,35.0,30.08,West,268,3.0,7.0,52,0.00,,,0.00,weatherlink.com 1.10,2013-01-21 16:00:00,
2013-01-21 11:16:00,53.9,33.0,30.08,West,269,11.0,11.0,46,0.00,,,0.00,weatherlink.com 1.10,2013-01-21 16:16:00,
2013-01-21 11:33:00,54.4,33.0,30.07,NW,326,4.0,12.0,45,0.00,,,0.00,weatherlink.com 1.10,2013-01-21 16:33:00,
2013-01-21 11:49:00,55.2,32.0,30.07,NNW,336,6.0,11.0,42,0.00,,,0.00,weatherlink.com 1.10,2013-01-21 16:49:00,
2013-01-21 12:06:00,56.2,33.0,30.06,West,273,5.0,11.0,41,0.00,,,0.00,weatherlink.com 1.10,2013-01-21 17:06:00,
2013-01-21 12:23:00,57.1,31.0,30.05,WNW,290,2.0,9.0,38,0.00,,,0.00,weatherlink.com 1.10,2013-01-21 17:23:00,
2013-01-21 12:38:00,58.4,32.0,30.05,North,360,3.0,9.0,37,0.00,,,0.00,weatherlink.com 1.10,2013-01-21 17:38:00,
2013-01-21 12:57:00,57.6,31.0,30.04,WSW,251,3.0,11.0,37,0.00,,,0.00,weatherlink.com 1.10,2013-01-21 17:57:00,
2013-01-21 13:00:00,57.3,31.3,30.01,NW,309,6.0,18.0,37,0.00,,---,0.00,VWS V14.01,2013-01-21 18:00:00,
2013-01-21 13:11:00,57.4,32.0,30.03,WSW,250,4.0,15.0,38,0.00,,,0.00,weatherlink.com 1.10,2013-01-21 18:11:00,
2013-01-21 13:28:00,57.5,32.0,30.02,NNW,342,8.0,16.0,38,0.00,,,0.00,weatherlink.com 1.10,2013-01-21 18:28:00,
2013-01-21 13:45:00,57.3,32.0,30.02,WNW,282,10.0,18.0,38,0.00,,,0.00,weatherlink.com 1.10,2013-01-21 18:45:00,
2013-01-21 14:01:00,57.4,31.0,30.02,WNW,302,12.0,19.0,37,0.00,,,0.00,weatherlink.com 1.10,2013-01-21 19:01:00,
2013-01-21 14:18:00,57.1,31.0,30.02,NW,304,14.0,21.0,37,0.00,,,0.00,weatherlink.com 1.10,2013-01-21 19:18:00,
2013-01-21 14:34:00,56.8,31.0,30.03,WNW,297,4.0,22.0,38,0.00,,,0.00,weatherlink.com 1.10,2013-01-21 19:34:00,
2013-01-21 14:50:00,56.6,30.0,30.02,WNW,302,7.0,15.0,37,0.00,,,0.00,weatherlink.com 1.10,2013-01-21 19:50:00,
2013-01-21 15:00:00,53.8,28.8,30.04,WSW,241,9.0,22.0,38,0.00,,---,0.00,VWS V14.01,2013-01-21 20:00:00,
2013-01-21 15:07:00,56.2,30.0,30.03,WNW,294,10.0,17.0,37,0.00,,,0.00,weatherlink.com 1.10,2013-01-21 20:07:00,
2013-01-21 15:23:00,55.5,29.0,30.03,WNW,285,3.0,14.0,37,0.00,,,0.00,weatherlink.com 1.10,2013-01-21 20:23:00,
2013-01-21 15:40:00,54.1,29.0,30.04,NW,318,12.0,16.0,39,0.00,,,0.00,weatherlink.com 1.10,2013-01-21 20:40:00,
2013-01-21 15:56:00,54.0,29.0,30.04,WNW,293,14.0,17.0,39,0.00,,,0.00,weatherlink.com 1.10,2013-01-21 20:56:00,
2013-01-21 16:12:00,52.9,28.0,30.04,WSW,245,12.0,17.0,39,0.00,,,0.00,weatherlink.com 1.10,2013-01-21 21:12:00,
2013-01-21 16:29:00,51.9,27.0,30.05,SW,228,2.0,18.0,39,0.00,,,0.00,weatherlink.com 1.10,2013-01-21 21:29:00,
2013-01-21 16:45:00,50.9,27.0,30.05,West,280,11.0,13.0,39,0.00,,,0.00,weatherlink.com 1.10,2013-01-21 21:45:00,
2013-01-21 17:00:00,47.6,24.5,30.07,WNW,297,4.0,17.0,40,0.00,,---,0.00,VWS V14.01,2013-01-21 22:00:00,
2013-01-21 17:02:00,50.3,26.0,30.05,WNW,292,9.0,17.0,39,0.00,,,0.00,weatherlink.com 1.10,2013-01-21 22:02:00,
2013-01-21 17:19:00,49.2,25.0,30.05,West,262,7.0,17.0,39,0.00,,,0.00,weatherlink.com 1.10,2013-01-21 22:19:00,
2013-01-21 17:34:00,48.5,24.0,30.05,WNW,294,6.0,16.0,39,0.00,,,0.00,weatherlink.com 1.10,2013-01-21 22:34:00,
2013-01-21 17:51:00,47.9,24.0,30.07,SW,227,3.0,11.0,40,0.00,,,0.00,weatherlink.com 1.10,2013-01-21 22:51:00,
2013-01-21 18:08:00,47.3,24.0,30.08,WNW,295,4.0,11.0,40,0.00,,,0.00,weatherlink.com 1.10,2013-01-21 23:08:00,
2013-01-21 18:24:00,46.8,23.0,30.09,NW,311,6.0,12.0,39,0.00,,,0.00,weatherlink.com 1.10,2013-01-21 23:24:00,
2013-01-21 18:40:00,46.4,22.0,30.09,WSW,251,6.0,11.0,39,0.00,,,0.00,weatherlink.com 1.10,2013-01-21 23:40:00,
2013-01-21 18:57:00,45.9,23.0,30.09,NW,310,6.0,11.0,40,0.00,,,0.00,weatherlink.com 1.10,2013-01-21 23:57:00,
2013-01-21 19:00:00,44.2,23.7,30.09,West,278,5.0,12.0,44,0.00,,---,0.00,VWS V14.01,2013-01-22 00:00:00,
2013-01-21 19:13:00,45.4,22.0,30.09,West,259,6.0,12.0,40,0.00,,,0.00,weatherlink.com 1.10,2013-01-22 00:13:00,
2013-01-21 19:29:00,45.0,23.0,30.09,WNW,294,4.0,10.0,42,0.00,,,0.00,weatherlink.com 1.10,2013-01-22 00:29:00,
2013-01-21 19:47:00,44.5,23.0,30.09,NNW,332,4.0,9.0,43,0.00,,,0.00,weatherlink.com 1.10,2013-01-22 00:47:00,
2013-01-21 20:03:00,44.1,23.0,30.09,NNW,342,6.0,8.0,44,0.00,,,0.00,weatherlink.com 1.10,2013-01-22 01:03:00,
2013-01-21 20:19:00,43.7,23.0,30.10,WNW,283,4.0,11.0,44,0.00,,,0.00,weatherlink.com 1.10,2013-01-22 01:19:00,
2013-01-21 20:35:00,43.3,22.0,30.10,West,275,4.0,13.0,43,0.00,,,0.00,weatherlink.com 1.10,2013-01-22 01:35:00,
2013-01-21 20:51:00,43.0,21.0,30.11,WNW,295,4.0,12.0,42,0.00,,,0.00,weatherlink.com 1.10,2013-01-22 01:51:00,
2013-01-21 21:00:00,41.3,18.2,30.11,NNW,338,7.0,16.0,39,0.00,,---,0.00,VWS V14.01,2013-01-22 02:00:00,
2013-01-21 21:09:00,42.5,20.0,30.10,NW,323,4.0,12.0,41,0.00,,,0.00,weatherlink.com 1.10,2013-01-22 02:09:00,
2013-01-21 21:25:00,42.0,20.0,30.10,WNW,299,4.0,12.0,41,0.00,,,0.00,weatherlink.com 1.10,2013-01-22 02:25:00,
2013-01-21 21:41:00,41.8,18.0,30.11,WNW,288,7.0,17.0,39,0.00,,,0.00,weatherlink.com 1.10,2013-01-22 02:41:00,
2013-01-21 21:57:00,41.4,18.0,30.11,NW,319,7.0,15.0,39,0.00,,,0.00,weatherlink.com 1.10,2013-01-22 02:57:00,
2013-01-21 22:15:00,40.9,18.0,30.11,NNW,329,8.0,22.0,39,0.00,,,0.00,weatherlink.com 1.10,2013-01-22 03:15:00,
2013-01-21 22:30:00,40.5,18.0,30.11,WNW,302,5.0,15.0,40,0.00,,,0.00,weatherlink.com 1.10,2013-01-22 03:30:00,
2013-01-21 22:46:00,39.9,18.0,30.12,WNW,291,6.0,17.0,42,0.00,,,0.00,weatherlink.com 1.10,2013-01-22 03:46:00,
2013-01-21 23:00:00,38.0,18.6,30.11,WNW,289,13.0,19.0,45,0.00,,---,0.00,VWS V14.01,2013-01-22 04:00:00,
2013-01-21 23:04:00,39.4,18.0,30.12,WNW,283,9.0,19.0,42,0.00,,,0.00,weatherlink.com 1.10,2013-01-22 04:04:00,
2013-01-21 23:19:00,39.0,18.0,30.11,WNW,296,7.0,13.0,43,0.00,,,0.00,weatherlink.com 1.10,2013-01-22 04:19:00,
2013-01-21 23:36:00,38.6,18.0,30.11,WNW,282,8.0,22.0,43,0.00,,,0.00,weatherlink.com 1.10,2013-01-22 04:36:00,
2013-01-21 23:52:00,38.2,18.0,30.11,West,274,6.0,13.0,44,0.00,,,0.00,weatherlink.com 1.10,2013-01-22 04:52:00,